Location: Aufkirchen
(47.9603°N, 11.3653°E)
Time: 11:24:23
(UTC+02:00)

Altair - Pass Details

Date: 02 August 2021
Orbit: 1501 x 1682 km, 47.2° (Epoch: 18 September)

Event Time Altitude Azimuth Distance (km) Brightness Sun altitude
Exits shadow 03:36:13 21° 236° (SW) 2,935 8.4 -17.7°
Maximum altitude 03:42:56 69° 158° (SSE) 1,607 7.4 -17.0°
Drops below altitude 10° 03:52:02 10° 78° (ENE) 3,657 10.2 -16.1°
Sets 03:55:03 0° 76° (ENE) 4,637 10.9 -15.8°
